Time,TemperatureF,DewpointF,PressureIn,WindDirection,WindDirectionDegrees,WindSpeedMPH,WindSpeedGustMPH,Humidity,HourlyPrecipIn,Conditions,Clouds,dailyrainin,SoftwareType,DateUTC
2013-02-07 13:11:00,46.0,25.0,-100.00,NNW,345,5.0,-999.0,42,0.00,,,-99.99,,2013-02-07 20:11:00,
2013-02-07 13:21:00,46.0,25.0,-100.00,North,0,4.0,9.0,42,0.00,,,-99.99,,2013-02-07 20:21:00,
2013-02-07 13:31:00,46.0,25.0,-100.00,North,355,6.0,8.0,42,0.00,,,-99.99,,2013-02-07 20:31:00,
2013-02-07 13:41:00,47.0,25.0,-100.00,North,0,6.0,9.0,41,0.00,,,-99.99,,2013-02-07 20:41:00,
2013-02-07 13:52:00,47.0,25.0,-100.00,NNW,330,6.0,8.0,41,0.00,,,-99.99,,2013-02-07 20:52:00,
2013-02-07 14:01:00,48.0,25.0,-100.00,North,0,2.0,8.0,41,0.00,,,-99.99,,2013-02-07 21:01:00,
2013-02-07 14:11:00,47.0,25.0,-100.00,NW,310,7.0,9.0,41,0.00,,,-99.99,,2013-02-07 21:11:00,
2013-02-07 14:21:00,47.0,25.0,-100.00,NW,320,6.0,8.0,41,0.00,,,-99.99,,2013-02-07 21:21:00,
2013-02-07 14:31:00,48.0,25.0,-100.00,NW,315,6.0,9.0,41,0.00,,,-99.99,,2013-02-07 21:31:00,
2013-02-07 14:41:00,47.0,25.0,-100.00,NNW,340,6.0,9.0,41,0.00,,,-99.99,,2013-02-07 21:41:00,
2013-02-07 14:51:00,47.0,24.0,-100.00,NW,325,6.0,10.0,40,0.00,,,-99.99,,2013-02-07 21:51:00,
2013-02-07 15:01:00,48.0,25.0,-100.00,NW,325,7.0,9.0,40,0.00,,,-99.99,,2013-02-07 22:01:00,
2013-02-07 15:11:00,49.0,26.0,-100.00,NW,325,5.0,7.0,40,0.00,,,-99.99,,2013-02-07 22:11:00,
2013-02-07 15:21:00,49.0,26.0,-100.00,North,355,4.0,9.0,40,0.00,,,-99.99,,2013-02-07 22:21:00,
2013-02-07 15:31:00,48.0,25.0,-100.00,NNW,335,6.0,12.0,40,0.00,,,-99.99,,2013-02-07 22:31:00,
2013-02-07 15:42:00,49.0,25.0,-100.00,NW,325,7.0,12.0,39,0.00,,,-99.99,,2013-02-07 22:42:00,
2013-02-07 15:51:00,48.0,24.0,-100.00,NW,325,7.0,12.0,38,0.00,,,-99.99,,2013-02-07 22:51:00,
2013-02-07 16:01:00,48.0,24.0,-100.00,NNW,330,7.0,10.0,38,0.00,,,-99.99,,2013-02-07 23:01:00,
2013-02-07 16:11:00,47.0,23.0,-100.00,NW,325,5.0,9.0,37,0.00,,,-99.99,,2013-02-07 23:11:00,
2013-02-07 16:21:00,47.0,22.0,-100.00,NW,320,6.0,9.0,37,0.00,,,-99.99,,2013-02-07 23:21:00,
2013-02-07 16:31:00,46.0,21.0,-100.00,NW,320,7.0,10.0,37,0.00,,,-99.99,,2013-02-07 23:31:00,
2013-02-07 16:41:00,45.0,21.0,-100.00,NW,310,7.0,9.0,38,0.00,,,-99.99,,2013-02-07 23:41:00,
2013-02-07 16:52:00,45.0,21.0,-100.00,NW,320,7.0,9.0,38,0.00,,,-99.99,,2013-02-07 23:52:00,
2013-02-07 17:01:00,44.0,20.0,-100.00,NW,315,6.0,9.0,37,0.00,,,-99.99,,2013-02-08 00:01:00,
2013-02-07 17:11:00,45.0,20.0,-100.00,NW,325,7.0,9.0,36,0.00,,,-99.99,,2013-02-08 00:11:00,
2013-02-07 17:21:00,45.0,20.0,-100.00,NW,325,6.0,8.0,36,0.00,,,-99.99,,2013-02-08 00:21:00,
2013-02-07 17:31:00,45.0,20.0,-100.00,NNW,335,4.0,7.0,36,0.00,,,-99.99,,2013-02-08 00:31:00,
2013-02-07 17:41:00,45.0,20.0,-100.00,NNW,345,4.0,7.0,36,0.00,,,-99.99,,2013-02-08 00:41:00,
2013-02-07 17:52:00,44.0,19.0,-100.00,North,350,3.0,6.0,36,0.00,,,-99.99,,2013-02-08 00:52:00,
2013-02-07 18:01:00,43.0,20.0,-100.00,North,0,2.0,7.0,39,0.00,,,-99.99,,2013-02-08 01:01:00,
2013-02-07 18:11:00,42.0,20.0,-100.00,North,355,4.0,7.0,40,0.00,,,-99.99,,2013-02-08 01:11:00,
2013-02-07 18:21:00,41.0,20.0,-100.00,NNW,330,5.0,7.0,42,0.00,,,-99.99,,2013-02-08 01:21:00,
2013-02-07 18:31:00,41.0,21.0,-100.00,NNW,335,4.0,7.0,43,0.00,,,-99.99,,2013-02-08 01:31:00,
2013-02-07 18:41:00,41.0,21.0,-100.00,NNW,340,6.0,7.0,43,0.00,,,-99.99,,2013-02-08 01:41:00,
2013-02-07 18:51:00,41.0,21.0,-100.00,NNW,335,6.0,9.0,43,0.00,,,-99.99,,2013-02-08 01:51:00,
2013-02-07 19:01:00,41.0,20.0,-100.00,NNW,330,7.0,9.0,43,0.00,,,-99.99,,2013-02-08 02:01:00,
2013-02-07 19:11:00,40.0,20.0,-100.00,NNW,330,7.0,9.0,44,0.00,,,-99.99,,2013-02-08 02:11:00,
2013-02-07 19:21:00,39.0,19.0,-100.00,NNW,335,8.0,10.0,44,0.00,,,-99.99,,2013-02-08 02:21:00,
2013-02-07 19:31:00,39.0,19.0,-100.00,NNW,345,6.0,11.0,45,0.00,,,-99.99,,2013-02-08 02:31:00,
2013-02-07 19:42:00,38.0,19.0,-100.00,NNW,335,7.0,7.0,45,0.00,,,-99.99,,2013-02-08 02:42:00,
2013-02-07 19:52:00,38.0,19.0,-100.00,NNW,330,9.0,9.0,47,0.00,,,-99.99,,2013-02-08 02:52:00,
2013-02-07 20:01:00,37.0,19.0,-100.00,NNW,330,9.0,12.0,47,0.00,,,-99.99,,2013-02-08 03:01:00,
2013-02-07 20:12:00,37.0,19.0,-100.00,NNW,345,6.0,10.0,48,0.00,,,-99.99,,2013-02-08 03:12:00,
2013-02-07 20:22:00,36.0,19.0,-100.00,North,0,4.0,6.0,49,0.00,,,-99.99,,2013-02-08 03:22:00,
2013-02-07 20:31:00,35.0,19.0,-100.00,NNW,345,6.0,7.0,51,0.00,,,-99.99,,2013-02-08 03:31:00,
2013-02-07 20:41:00,35.0,20.0,-100.00,NW,325,8.0,9.0,52,0.00,,,-99.99,,2013-02-08 03:41:00,
2013-02-07 20:51:00,35.0,19.0,-100.00,NW,325,7.0,8.0,52,0.00,,,-99.99,,2013-02-08 03:51:00,
2013-02-07 21:01:00,35.0,20.0,-100.00,NNW,340,7.0,9.0,53,0.00,,,-99.99,,2013-02-08 04:01:00,
2013-02-07 21:11:00,34.0,19.0,-100.00,NNW,345,6.0,9.0,54,0.00,,,-99.99,,2013-02-08 04:11:00,
2013-02-07 21:21:00,34.0,19.0,-100.00,NNW,335,6.0,7.0,54,0.00,,,-99.99,,2013-02-08 04:21:00,
2013-02-07 21:31:00,34.0,20.0,-100.00,NNW,330,6.0,7.0,55,0.00,,,-99.99,,2013-02-08 04:31:00,
2013-02-07 21:41:00,34.0,20.0,-100.00,NNW,335,7.0,9.0,55,0.00,,,-99.99,,2013-02-08 04:41:00,
2013-02-07 21:51:00,34.0,20.0,-100.00,NNW,335,8.0,10.0,56,0.00,,,-99.99,,2013-02-08 04:51:00,
2013-02-07 22:01:00,33.0,19.0,-100.00,NNW,340,4.0,10.0,56,0.00,,,-99.99,,2013-02-08 05:01:00,
2013-02-07 22:11:00,33.0,19.0,-100.00,NNW,345,6.0,7.0,56,0.00,,,-99.99,,2013-02-08 05:11:00,
2013-02-07 22:22:00,33.0,20.0,-100.00,NNW,345,6.0,8.0,57,0.00,,,-99.99,,2013-02-08 05:22:00,
2013-02-07 22:31:00,33.0,20.0,-100.00,NNW,335,7.0,9.0,57,0.00,,,-99.99,,2013-02-08 05:31:00,
2013-02-07 22:41:00,33.0,19.0,-100.00,NNW,340,6.0,9.0,57,0.00,,,-99.99,,2013-02-08 05:41:00,
2013-02-07 22:52:00,32.0,19.0,-100.00,NNW,340,4.0,7.0,57,0.00,,,-99.99,,2013-02-08 05:52:00,
2013-02-07 23:01:00,32.0,19.0,-100.00,NNW,340,6.0,6.0,58,0.00,,,-99.99,,2013-02-08 06:01:00,
2013-02-07 23:11:00,31.0,19.0,-100.00,NNW,345,6.0,8.0,59,0.00,,,-99.99,,2013-02-08 06:11:00,
2013-02-07 23:21:00,31.0,19.0,-100.00,NNW,330,7.0,8.0,59,0.00,,,-99.99,,2013-02-08 06:21:00,
2013-02-07 23:31:00,31.0,19.0,-100.00,NNW,335,6.0,9.0,60,0.00,,,-99.99,,2013-02-08 06:31:00,
2013-02-07 23:41:00,31.0,19.0,-100.00,NNW,335,6.0,7.0,60,0.00,,,-99.99,,2013-02-08 06:41:00,
2013-02-07 23:51:00,31.0,20.0,-100.00,NW,325,9.0,10.0,61,0.00,,,-99.99,,2013-02-08 06:51:00,